Terug naar catalogus

EKRAN 2 DEB

LostMEO
NORAD 33519·DEBRIS·🇷🇺 Russia

Gelanceerd Sep 20, 1977 vanaf Baikonur Cosmodrome

Loading…

Volgende Passages (komende 24 uur)

TLE

VerouderdSource: Space-Track

Epoch: Jan 7, 2018, 16:55 UTC

1 33519U 77092L   18007.70537850 -.00000350  00000-0  00000-0 0  9996
2 33519  11.3469 313.9585 0107804 327.7407  31.6723  1.00352171 16662

Volg EKRAN 2 DEB in realtime met AllMySat

Download on the App Store